Regional Weather Roundup
Issued by NWS Glasgow, MT

Home | Current Version | Previous Version | Text Only | Print | Product List | Glossary On
Versions: 1 2 3 4 5 6 7 8 9 10 11 12 13 14 15 16 17 18 19 20 21 22 23 24 25 26 27 28 29 30 31 32 33 34 35 36 37 38 39 40 41 42 43 44 45 46 47 48 49 50
000
ASUS45 KGGW 281315
RWRGGW
HOURLY WEATHER ROUNDUP FOR NORTHEAST MONTANA
NATIONAL WEATHER SERVICE GLASGOW MONTANA
600 AM MST SAT FEB 28 2015

NOTE: "FAIR" INDICATES FEW OR NO CLOUDS BELOW 12,000 FEET WITH NO
SIGNIFICANT WEATHER AND/OR OBSTRUCTIONS TO VISISBILITY.

NORTHEAST MONTANA


CITY           SKY/WX    TMP DP  RH WIND       PRES   REMARKS
GLASGOW        CLOUDY    11   5  77 W5        30.15R
PLENTYWOOD       N/A      2  -1  88 NW7         N/A
WOLF POINT     CLOUDY    10   4  76 SW5       30.17S
JORDAN           N/A      8   4  83 W7        30.15R
WINNETT          N/A     11   8  88 NW7         N/A
SIDNEY         CLEAR      3  -2  78 W12       30.17R WCI -13
GLENDIVE       CLOUDY     5   0  78 NW7       30.13R
MALTA            N/A     11   6  81 NW6         N/A
SCOBEY           N/A      7  -4  60 CALM      30.08R

FORT PECK REPORTS


CITY           SKY/WX    TMP DP  RH WIND       PRES   REMARKS
FORT PECK        N/A     13   9  84 W7          N/A
THE PINES        N/A     14   9  80 NW3         N/A

SOUTHEAST MONTANA


CITY           SKY/WX    TMP DP  RH WIND       PRES   REMARKS
BILLINGS       FLURRIES  16  10  77 E6        30.10R
MILES CITY     CLOUDY     8   2  76 CALM      30.16R
BAKER          PTCLDY     5   1  83 NW14      30.08R WCI -12
LIVINGSTON     LGT SNOW  13   8  81 N5        30.01R

CENTRAL MONTANA


CITY           SKY/WX    TMP DP  RH WIND       PRES   REMARKS
HAVRE          FLURRIES   9   5  84 W7        30.21S
LEWISTOWN      LGT SNOW  11   7  84 W8        30.08R FOG
GREAT FALLS    CLOUDY    12   6  77 CALM      30.13R
CUT BANK       PTCLDY     2  -1  88 NW9       30.12S
HELENA         CLOUDY    15   8  73 NW6       30.09R
BUTTE          LGT SNOW  10   5  80 NW5       29.94R
BOZEMAN        LGT SNOW  14   9  80 W6        30.02R

WESTERN MONTANA


CITY           SKY/WX    TMP DP  RH WIND       PRES   REMARKS
MISSOULA       PTCLDY    21   4  47 SE20      30.06R
KALISPELL      NOT AVBL

NORTH DAKOTA


CITY           SKY/WX    TMP DP  RH WIND       PRES   REMARKS
WILLISTON      PTCLDY     1  -7  68 NW9       30.14R
DICKINSON      CLOUDY    10   5  80 W14       30.01R WCI  -6
MINOT          CLOUDY    11   4  73 NW3       30.05S
BISMARCK       CLEAR      4  -1  80 S3        30.08S

SOUTHERN SASKATCHEWAN


CITY           SKY/WX    TMP DP  RH WIND       PRES   REMARKS
REGINA         PTCLDY   -18 -24  76 W3        30.13S
ESTEVAN        NOT AVBL
SWIFT CURRENT  FLURRIES   5   1  85 NW18      30.10S WCI -15



USA.gov is the U.S. government's official web portal to all federal, state and local government web resources and services.